Location: Newark
(43.0000°N, 1.6781°W)
Time: 13:47:34
(UTC+00:00)

Envisat - Visible Passes

Search period start: 25 February 2021 00:00
Search period end: 07 March 2021 00:00
Orbit: 764 x 766 km, 98.1° (Epoch: 24 February)

Date Brightness Start Highest point End Pass type
(mag) Time Alt. Az. Time Alt. Az. Time Alt. Az.
25 Feb 4.1 05:24:30 10° NNE 05:29:25 47° E 05:34:17 10° S visible
25 Feb 6.3 18:21:26 10° SW 18:24:16 15° W 18:27:07 10° NW visible
26 Feb 5.5 04:48:28 10° NE 04:52:21 22° E 04:56:13 10° SE visible
27 Feb 3.1 05:49:45 10° NNE 05:54:52 82° ESE 05:59:57 10° S visible
28 Feb 4.6 05:13:14 10° NNE 05:17:57 37° E 05:22:37 10° SSE visible
01 Mar 5.9 04:37:31 10° NE 04:40:49 17° E 04:44:06 10° SE visible
02 Mar 3.5 05:38:21 10° NNE 05:43:25 65° E 05:48:28 10° S visible
02 Mar 6.8 18:37:33 10° W 18:38:26 10° W 18:39:18 10° WNW visible
03 Mar 5.1 05:02:01 10° NE 05:06:26 29° E 05:10:50 10° SSE visible
04 Mar 6.1 04:26:48 10° ENE 04:29:15 13° E 04:31:41 10° ESE visible
04 Mar 3.0 06:03:44 10° N 06:08:49 74° WNW 06:13:52 10° SSW visible
05 Mar 4.0 05:27:00 10° NNE 05:31:58 51° E 05:36:54 10° S visible
05 Mar 6.5 18:24:21 10° WSW 18:26:51 14° W 18:29:23 10° WNW visible
06 Mar 5.5 04:50:53 10° NE 04:54:55 23° E 04:58:56 10° SE visible
